COSMOS 1275 DEB, 12708

Orbit data source: Space-Track

COSMOS 1275 DEB, 12708 is space debris in LEO originally from a launch on Thu, 04 Jun 1981 UTC launched from the Plesetsk Missile And Space Complex (PKMTR). Debris objects in space refer to the collection of defunct objects orbiting the Earth. Examples of debris include non-operational satellites, rocket bodies, and fragments generated from explosions, collisions, or faulty payload assembly.

Loading next visibility...
Identifier
12708, 1981-053BC
Orbit
LEO
Country
Flag of CISCIS
Related business
Manufacturer
Unknown
Mission
Spacecraft
Bus & Motor
Unknown
Mass
Unknown
Launch date (UTC)
1981-06-04 (45 years ago)
Launch vehicle
Unknown
Launch site
Plesetsk Missile And Space Complex (PKMTR)
Object type
Payload
Rocket body
Debris
Shape & HBR
Unknown shape, 0.2 m
Radar Cross Section
Small (<0.1 m²)

Expand to show TLE details & history
Last TLE update: 8 hours ago

TLE from 8 hours ago
0 COSMOS 1275 DEB
1 12708U 81053BC  26034.60975650  .00022353  00000-0  37574-2 0  9991
2 12708  82.8634 159.2836 0022232 241.6947 118.2019 14.69352583294259
Epoch: 2026-02-03T14:38Z
TLE epoch observation values (Epoch: 2026-02-03T14:38:02.961Z)
Latitude
0.00002°
Longitude
165.98304°
Altitude
673.591 km
Speed
7.516 km/s
True Right ascension
10h 37m 08s
True Declination
0° 00' 00"
Sunlit
Object was in full shadow at epoch
Visualization orbit readout
Latitude
Unknown
Longitude
Unknown
Altitude
Unknown
Speed
Unknown
Apparent Right ascension
Unknown
Apparent Declination
Unknown
Sunlit
N/A
Visualization observer readout
Local Sidereal Time
00:14:52
Azimuth
Unknown
Elevation
Unknown
Doppler factor
Unknown
Orbital elements
Apogee altitude
675.806 km
Perigee altitude
644.511 km
Semi-major axis
7,038.295 km
Eccentricity
0.00222
Inclination
82.8634°
RAAN
159.2836°
Arg. of periapsis
241.6947°
True anomaly
118.42612°
Mean anomaly
118.2019°
Eccentric anomaly
118.31404°
Mean motion
3.67572 °/min
Orbital period
97.94 mins
BSTAR
0.0037574
Loading maneuver chart data...
Computing Atmospheric mass density...
Loading historical data...
Loading historical data...
Loading historical data...
Loading historical data...
Loading historical data...
Loading historical data...
Loading historical data...

Documentation

Showing up to 5 results
|